Weather Roundup
Issued by NWS

Home | Current Version | Previous Version | Graphics & Text | Print | Product List | Glossary Off
Versions: 1 2 3 4 5 6 7 8 9 10 11 12 13 14 15 16 17 18 19 20 21 22 23 24 25 26 27 28 29 30 31 32 33 34 35 36 37 38 39 40 41 42 43 44 45 46 47 48 49 50

000
NZUS93 KARX 240010
HRRWXR

CURRENT HOURLY OBSERVATIONS ACROSS
MUCH OF THE UPPER MISSISSIPPI VALLEY
NATIONAL WEATHER SERVICE LA CROSSE WI
600 PM CST MON JAN 23 2017


...SOUTHEAST MINNESOTA...


CITY           SKY/WX    TMP DP  RH WIND       PRES   REMARKS
ROCHESTER      CLOUDY    31  28  89 W8        29.82S WCI  23
ROCHESTER/MAYO CLOUDY    33  30  90 W7        29.82S WCI  27
WINONA         CLOUDY    34  32  93 CALM      29.84S
AUSTIN         CLOUDY    32  27  80 NW8       29.82S WCI  25
ALBERT LEA     CLOUDY    32  28  86 NW3       29.82S
DODGE CENTER   MOCLDY    30  28  93 MISG      29.82S
PRESTON        CLOUDY    32  28  87 NW7       29.82S WCI  25
OWATONNA       CLOUDY    32  28  86 W6        29.83S WCI  26
FARIBAULT      NOT AVBL
$$

...ELSEWHERE IN MINNESOTA...


CITY           SKY/WX    TMP DP  RH WIND       PRES   REMARKS
MINNEAPOLIS    CLOUDY    34  29  82 NW5       29.84R WCI  30
INTNL FALLS    CLOUDY    32  27  81 CALM      29.78R
DULUTH         CLOUDY    34  32  92 NW3       29.78S
RED WING       CLOUDY    34  28  80 CALM      29.83S
REDWOOD FALLS  CLOUDY    33  27  78 CALM      29.84S
MANKATO        CLOUDY    32  28  85 NW7       29.84S WCI  26
WORTHINGTON    CLOUDY    30  29  96 E3        29.81F
FAIRMONT       CLOUDY    31  30  96 N3        29.83F
$$

...SOUTHWEST WISCONSIN...


CITY           SKY/WX    TMP DP  RH WIND       PRES   REMARKS
LA CROSSE      CLOUDY    37  33  85 CALM      29.83R
PRAIRIE DU CHI CLOUDY    36  32  85 CALM      29.83S
BOSCOBEL       CLOUDY    38  31  76 CALM      29.84R
LONE ROCK      CLOUDY    37  32  82 W6        29.82R WCI  32
PLATTEVILLE    CLOUDY    36  34  93 N6        29.82R WCI  31
FORT MC COY    CLOUDY    33  33  99 CALM      29.84R
CAMP DOUGLAS   CLOUDY    36  34  93 W5        29.81R WCI  32
MAUSTON-NEW LI CLOUDY    35  34  94 W3        29.81R
VIROQUA        CLOUDY    33  33 100 W3        29.81R
WIS DELLS      CLOUDY    35  33  92 W5        29.80R WCI  31
$$

...ELSEWHERE IN WISCONSIN...


CITY           SKY/WX    TMP DP  RH WIND       PRES   REMARKS
MILWAUKEE      CLOUDY    41  35  79 NW8       29.78R
MADISON        CLOUDY    37  35  92 NW3       29.81R
GREEN BAY      CLOUDY    38  36  92 NW3       29.77F
EAU CLAIRE     CLOUDY    34  34 100 CALM      29.81S
BLACK RVR FLS  CLOUDY    35  35 100 CALM      29.82R
MEDFORD        FOG       33  33 100 NW3       29.77S VSB 3/4
WAUSAU         CLOUDY    34  33  96 NW6       29.77R WCI  29
WIS RAPIDS     CLOUDY    35  35 100 CALM      29.80R
MARSHFIELD     CLOUDY    34  32  92 W7        29.78R FOG     WCI  28
RICE LAKE      CLOUDY    34  33  96 SW3       29.82S
$$

...NORTHEAST IOWA...


CITY           SKY/WX    TMP DP  RH WIND       PRES   REMARKS
WATERLOO       CLOUDY    33  28  81 W3        29.84R
DUBUQUE        CLOUDY    35  33  92 NW8       29.82R WCI  29
DECORAH        CLOUDY    34  30  86 NW5       29.81S WCI  30
MASON CITY     CLOUDY    32  28  85 N9        29.83F WCI  24
CHARLES CITY   CLOUDY    34  32  93 NW6       29.83S WCI  29
OELWEIN        CLOUDY    32  32 100 N5        29.82F WCI  27
$$

...ELSEWHERE IN IOWA...


CITY           SKY/WX    TMP DP  RH WIND       PRES   REMARKS
DES MOINES     CLOUDY    34  28  79 N5        29.85F WCI  30
IOWA CITY      CLOUDY    35  29  78 W8        29.87R WCI  29
FORT DODGE     CLOUDY    32  27  80 CALM      29.84S
MARSHALLTOWN   CLOUDY    32  30  92 W3        29.84R
CEDAR RAPIDS   CLOUDY    32  29  88 NW6       29.83R WCI  26
$$

...NORTHERN ILLINOIS...


CITY           SKY/WX    TMP DP  RH WIND       PRES   REMARKS
CHICAGO-OHARE  CLOUDY    41  35  79 NW9       29.77R
CHICAGO-MIDWAY CLOUDY    42  34  73 NW7       29.77R
MOLINE         CLOUDY    39  33  79 NW8       29.82S WCI  33
ROCKFORD       CLOUDY    40  35  83 NW9       29.81R WCI  34
PEORIA         CLOUDY    40  36  86 NW7       29.83R
$$

NOTE: "FAIR" INDICATES FEW OR NO CLOUDS BELOW 12,000 FEET WITH NO
SIGNIFICANT WEATHER AND/OR OBSTRUCTIONS TO VISIBILITY. WIND
SPEEDS ARE IN MILES-PER-HOUR.




USA.gov is the U.S. government's official web portal to all federal, state and local government web resources and services.